星链-32231 (STARLINK-32231)

导读

STARLINK-32231是美国SpaceX星链(Starlink)星座的一员,于2024年8月12日发射升空,归属美国航天体系。星链项目旨在构建全球覆盖的低轨卫星互联网,为偏远地区等提供高速低延迟宽带服务。该卫星运行在近地轨道,作为星链组网的组成部分,助力拓展全球卫星互联网覆盖,延续SpaceX大规模部署星链星座的进程,支撑项目持续完善全球天基通信网络。

Basic Information
目录编号:
60439
目录名称:
STARLINK-32231
国际标识:
2024-144Q
轨道中心:
EARTH
卫星名称:
星链-32231 (STARLINK-32231)
卫星全名:
星链-32231 (STARLINK-32231)
卫星状态:
在轨 (已飞行675 天)
发射日期:
2024-08-12 UTC
国别 :
美国 (US)
星等 :
--
Orbit Information
数据来源 国际轨道数据 AOE轨道数据
星历时间 2026-06-17T10:57:15+0800
21小时前
查看轨道信息
2026-06-17T02:00:00+0800
1天前
查看轨道信息
半长轴 6840.851km 6840.813km
偏心率 0.0001395 0.0001298
轨道倾角 53.160° 53.159°
近地点辐角 87.542° 72.845°
升交点赤经 113.801° 115.546°
平近点角 272.574° 25.290°
近地点 461.759km 461.788km
远地点 463.669km 463.564km
周期 93.848分钟 93.847分钟
每日圈数 15.343964 15.344095
Detailed Information
卫星平台:
Starlink v2.0 mini
运营商:
太空探索技术公司
运营商所在国:
美国
制造商(研发单位):
太空探索技术公司
制造商所在国:
美国
使用方式:
暂无
Satellite Introduction
星链(Starlink)计划是由太空探索技术公司(SpaceX)提出的一个巨型低轨卫星互联网星座项目,计划在2019年至2024年间在太空搭建由约1.2万颗卫星组成的“星链”网络,其中1584颗将部署在地球上空550千米处的近地轨道,并从2020年开始工作。该卫星仍在工作。
2D Orbit Map
3D Orbit Map
Orbit Altitude Analysis Chart
Orbit Inclination Analysis Chart
Orbit Comprehensive Analysis Chart
View Comprehensive Chart